Location: Unspecified
(0.0000°N, 0.0000°E)
Time: 10:57:42
(UTC+00:00)

PCSat - Pass Details

Date: 13 December 2017
Orbit: 784 x 795 km, 67.1° (Epoch: 22 May)

Event Time Altitude Azimuth Distance (km) Brightness Sun altitude
Rises 04:42:13 0° 8° (N) 3,270 12.6 -16.5°
Reaches altitude 10° 04:45:17 10° 26° (NNE) 2,347 12.0 -15.8°
Maximum altitude 04:49:03 19° 70° (ENE) 1,793 12.0 -14.9°
Drops below altitude 10° 04:52:49 10° 115° (ESE) 2,358 13.5 -14.1°
Sets 04:55:53 0° 132° (SE) 3,291 14.3 -13.4°
